TimeCST,TemperatureF,Dew PointF,Humidity,Sea Level PressureIn,VisibilityMPH,Wind Direction,Wind SpeedMPH,Gust SpeedMPH,PrecipitationIn,Events,Conditions,WindDirDegrees,DateUTC
12:53 AM,32.0,26.1,79,30.10,5.0,East,5.8,-,N/A,,Haze,100,2013-03-09 06:53:00
1:33 AM,32.0,28.4,87,30.02,3.0,ESE,6.9,-,0.02,Rain,Light Freezing Rain,110,2013-03-09 07:33:00
1:42 AM,32.0,28.4,87,30.01,2.5,ESE,6.9,-,0.04,Rain,Light Freezing Rain,120,2013-03-09 07:42:00
1:50 AM,33.8,28.4,81,30.00,2.5,ESE,8.1,-,0.06,Rain,Light Freezing Rain,120,2013-03-09 07:50:00
1:53 AM,33.1,28.9,85,30.07,2.5,ESE,6.9,-,0.06,Rain,Light Freezing Rain,120,2013-03-09 07:53:00
2:37 AM,33.8,30.2,87,29.98,2.0,SE,8.1,-,0.09,Rain,Light Freezing Rain,130,2013-03-09 08:37:00
2:41 AM,33.8,30.2,87,29.98,2.0,SE,8.1,-,0.09,Rain,Light Freezing Rain,130,2013-03-09 08:41:00
2:50 AM,33.8,30.2,87,29.97,2.0,SE,8.1,-,0.10,Rain,Light Rain,130,2013-03-09 08:50:00
2:53 AM,33.1,30.0,89,30.03,2.5,SE,8.1,-,0.11,Rain,Light Rain,130,2013-03-09 08:53:00
3:05 AM,33.8,30.2,87,29.96,2.0,ESE,8.1,-,0.02,Rain,Rain,120,2013-03-09 09:05:00
3:53 AM,33.1,30.9,92,29.99,2.0,ESE,9.2,-,0.10,Rain,Rain,120,2013-03-09 09:53:00
4:53 AM,33.1,30.9,92,29.98,1.5,ESE,6.9,-,0.07,Snow,Light Snow,120,2013-03-09 10:53:00
5:53 AM,33.1,30.9,92,29.96,1.0,ESE,6.9,-,0.05,Snow,Light Snow,110,2013-03-09 11:53:00
6:53 AM,33.1,30.9,92,29.94,2.0,ESE,6.9,-,0.04,Snow,Light Snow,110,2013-03-09 12:53:00
7:05 AM,33.8,30.2,87,29.87,1.5,ESE,5.8,-,0.00,,Overcast,110,2013-03-09 13:05:00
7:53 AM,33.1,32.0,96,29.92,1.2,ESE,4.6,-,0.00,,Overcast,110,2013-03-09 13:53:00
8:14 AM,33.8,32.0,93,29.84,1.0,ESE,5.8,-,N/A,,Overcast,120,2013-03-09 14:14:00
8:25 AM,33.8,32.0,93,29.83,0.8,ESE,6.9,-,N/A,,Overcast,110,2013-03-09 14:25:00
8:53 AM,34.0,32.0,92,29.88,0.8,ESE,6.9,-,N/A,,Overcast,120,2013-03-09 14:53:00
9:53 AM,34.0,33.1,96,29.86,0.8,SE,6.9,-,N/A,,Overcast,130,2013-03-09 15:53:00
10:53 AM,35.1,33.1,92,29.85,0.8,SE,6.9,-,N/A,,Overcast,130,2013-03-09 16:53:00
11:53 AM,35.1,34.0,96,29.83,1.0,ESE,4.6,-,0.02,Rain,Light Rain,110,2013-03-09 17:53:00
12:49 PM,35.6,33.8,93,29.76,1.5,SE,5.8,-,0.11,Rain,Rain,130,2013-03-09 18:49:00
12:53 PM,35.1,34.0,96,29.82,1.5,ESE,4.6,-,0.12,Rain,Rain,110,2013-03-09 18:53:00
1:38 PM,35.6,33.8,93,29.73,2.5,Calm,Calm,-,0.07,Rain,Light Rain,0,2013-03-09 19:38:00
1:53 PM,36.0,34.0,93,29.78,2.5,East,3.5,-,0.09,Rain,Light Rain,80,2013-03-09 19:53:00
2:07 PM,35.6,33.8,93,29.72,3.0,East,3.5,-,0.00,,Overcast,90,2013-03-09 20:07:00
2:18 PM,35.6,33.8,93,29.71,2.5,ENE,4.6,-,0.00,Rain,Light Rain,70,2013-03-09 20:18:00
2:49 PM,35.6,33.8,93,29.69,1.5,East,6.9,-,0.01,,Overcast,90,2013-03-09 20:49:00
2:53 PM,36.0,34.0,93,29.75,1.2,East,6.9,-,0.01,,Overcast,80,2013-03-09 20:53:00
3:53 PM,36.0,34.0,93,29.76,1.5,East,4.6,-,0.03,Snow,Light Snow,100,2013-03-09 21:53:00
4:24 PM,35.6,33.8,93,29.69,2.5,Calm,Calm,-,0.04,,Overcast,0,2013-03-09 22:24:00
4:53 PM,36.0,34.0,93,29.75,1.8,Calm,Calm,-,0.04,,Overcast,0,2013-03-09 22:53:00
5:10 PM,35.6,33.8,93,29.70,2.0,ESE,3.5,-,N/A,,Overcast,110,2013-03-09 23:10:00
5:27 PM,35.6,33.8,93,29.70,1.5,Calm,Calm,-,N/A,,Overcast,0,2013-03-09 23:27:00
5:53 PM,35.1,34.0,96,29.76,1.0,Calm,Calm,-,0.00,,Overcast,0,2013-03-09 23:53:00
6:17 PM,35.6,33.8,93,29.71,0.8,North,3.5,-,0.00,,Overcast,350,2013-03-10 00:17:00
6:50 PM,33.8,33.8,100,29.72,1.0,North,3.5,-,0.01,,Mist,10,2013-03-10 00:50:00
6:53 PM,34.0,33.1,96,29.78,1.2,North,4.6,-,0.01,,Overcast,360,2013-03-10 00:53:00
7:34 PM,33.8,32.0,93,29.72,2.5,NNW,6.9,-,N/A,,Overcast,340,2013-03-10 01:34:00
7:53 PM,34.0,33.1,96,29.79,2.5,North,5.8,-,N/A,,Overcast,350,2013-03-10 01:53:00
8:11 PM,33.8,32.0,93,29.75,3.0,NNW,5.8,-,0.00,,Overcast,340,2013-03-10 02:11:00
8:53 PM,33.1,32.0,96,29.80,5.0,North,8.1,-,0.00,,Overcast,350,2013-03-10 02:53:00
9:29 PM,33.8,32.0,93,29.77,10.0,NNW,8.1,-,N/A,,Overcast,340,2013-03-10 03:29:00
9:53 PM,34.0,32.0,92,29.83,10.0,NNW,8.1,-,N/A,,Overcast,340,2013-03-10 03:53:00
10:53 PM,34.0,30.9,89,29.85,10.0,NNW,9.2,-,N/A,,Overcast,340,2013-03-10 04:53:00
11:23 PM,33.8,30.2,87,29.82,10.0,NNW,8.1,-,N/A,,Overcast,330,2013-03-10 05:23:00
11:53 PM,34.0,30.0,85,29.88,10.0,NNW,11.5,-,N/A,,Overcast,340,2013-03-10 05:53:00